Miscellaneous Local Product
Issued by NWS North Platte, NE

Home | Current Version | Previous Version | Text Only | Print | Product List | Glossary On
Versions: 1 2 3 4 5 6 7 8 9 10 11 12 13 14 15 16 17 18 19 20 21 22 23 24 25 26 27 28 29 30 31 32 33 34 35 36 37 38 39 40 41 42 43 44 45 46 47 48 49 50
000
AXUS43 KLBF 232010
MISLBF


WESTERN AND NORTH CENTRAL NEBRASKA HOURLY WEATHER ROUNDUP
NATIONAL WEATHER SERVICE NORTH PLATTE NE
300 PM CDT TUE SEP 23 2014

***STATIONS NOT REPORTING VARIABLES SUCH AS SKY/WEATHER OR
PRESSURE ARE PROVIDED BY THE NEBRASKA DEPARTMENT OF
ROADS...RAWS...AND APRS NETWORKS...AND ARE NOT UNDER
NATIONAL WEATHER SERVICE QUALITY CONTROL***

...OBSERVATIONS IN AND NEAR THE EASTERN PANHANDLE OF NEBRASKA...

CITY           SKY/WX    TMP DP  RH WIND       PRES   REMARKS
PINE RIDGE     PTSUNNY   78  52  40 W10       29.95S
CHADRON        CLOUDY    74  53  48 NW6       29.96F
ALLIANCE       SUNNY     82  45  27 NW18G24   29.98F
SIDNEY         MOSUNNY   83  44  25 NW15G23   30.04F
WHITECLAY        N/A     78  51  39 W12         N/A
RUSHVILLE        N/A     73  45  35 W13         N/A
CRESCENT LAKE    N/A     82  47  29 W9G18       N/A
LISCO            N/A     85  40  20 W15         N/A
BIG SPRINGS      N/A     81  54  38 W3          N/A
$$

...OBSERVATIONS IN NORTH CENTRAL NEBRASKA...

CITY           SKY/WX    TMP DP  RH WIND       PRES   REMARKS
VALENTINE      LGT RAIN  74  58  57 S5        29.90S
THEDFORD       MOSUNNY   82  56  41 SW12      29.93F
AINSWORTH      PTSUNNY   74  59  59 S13       29.92S
O`NEILL        CLOUDY    64  59  84 S15       29.98F
ORD            PTSUNNY   69  58  67 SE15G22   29.97F
BROKEN BOW     SUNNY     76  60  57 S12G25    29.96F
SPRINGVIEW       N/A     73  60  65 S6G18       N/A
ROSE             N/A     74  65  71 E14         N/A
NEWPORT          N/A     69  61  76 S15         N/A
COMSTOCK         N/A     76  63  62 S16         N/A
CHAMBERS         N/A     65  59  81 S8G15       N/A
$$

...OBSERVATIONS IN SOUTHWEST NEBRASKA AND FAR NORTHEAST COLORADO...

CITY           SKY/WX    TMP DP  RH WIND       PRES   REMARKS
WRAY           FAIR      87  43  21 W16G25    30.03S
HOLYOKE        FAIR      82  45  26 W15G22    30.01S
IMPERIAL       SUNNY     85  47  26 MISG      29.98F
OGALLALA       SUNNY     84  51  31 SW8       29.97F
NORTH PLATTE   SUNNY     82  58  43 SW12      29.95F
MCCOOK         MOSUNNY   80  58  46 VRB6      29.97F
LEXINGTON      SUNNY     74  62  64 S14       29.98F
PAXTON           N/A     79  54  41 W5          N/A
SUTHERLAND       N/A     87  47  24 W7          N/A
BRADY            N/A     78  60  54 CALM        N/A
GOTHENBURG       N/A     75  56  52 S7          N/A
CALLAWAY         N/A     74  63  69 S12         N/A
$$

...SOME WEATHER OBSERVATIONS FROM AROUND THE REGION...

CITY           SKY/WX    TMP DP  RH WIND       PRES   REMARKS
DENVER         MOSUNNY   81  40  23 NW14      30.12F
LARAMIE        CLOUDY    64  39  39 W20       30.23F
CHEYENNE       MOSUNNY   73  39  29 NW20G35   30.16S
SCOTTSBLUFF    SUNNY     84  46  26 W15G22    30.00F
RAPID CITY     PTSUNNY   79  53  40 N5        29.93S
PIERRE         CLOUDY    67  57  70 SE17      29.89F
WINNER         FAIR      73  58  59 S14G22    29.90F
SIOUX FALLS    LGT RAIN  59  56  89 SE16      30.07F
OMAHA          CLOUDY    69  54  58 S20G25    30.12F
GRAND ISLAND   MOSUNNY   69  56  62 S18G25    30.03F
KANSAS CITY    PTSUNNY   71  53  52 S13       30.19F
WICHITA        PTSUNNY   80  51  36 S20       30.08F
LIBERAL        SUNNY     91  57  31 SW20G29   30.01F HX  90
GOODLAND       SUNNY     82  53  36 VRB5      30.04F
$$



USA.gov is the U.S. government's official web portal to all federal, state and local government web resources and services.